Location: Newark
(51.0500°N, 12.4500°E)
Time: 14:42:46
(UTC+00:00)

Tiros 1 - Pass Details

Date: 22 February 2020
Orbit: 630 x 664 km, 48.4° (Epoch: 31 March)

Event Time Altitude Azimuth Distance (km) Brightness Sun altitude
Rises 06:04:43 0° 278° (W) 2,920 - -1.7°
Exits shadow 06:05:13 - 277° (W) 2,732 9.7 -1.7°
Reaches altitude 10° 06:07:09 10° 271° (W) 2,009 9.1 -1.4°
Maximum altitude 06:11:26 39° 203° (SSW) 955 8.0 -0.7°
Drops below altitude 10° 06:15:43 10° 135° (SE) 2,008 10.9 -0.1°
Sets 06:18:08 0° 128° (SE) 2,917 12.1 0.3°
